Main page
METAR-TAF:

METAR-TAF

Airports :

Sheldon Municipal Airport

Sheldon, Iowa, United States

latitude: 43-13N, longitude: 095-50W, elevation: 1417 ft

Current weather observation

The report was made 35 minutes ago, at 08:35 UTC
Wind 12 mph from the West
Temperature 48°F
Humidity 87%
Pressure 29.74 in. Hg
Visibility: 10 miles
Clear sky

METAR: KSHL 220835Z AUTO 28010KT 10SM CLR 09/07 A2974 RMK AO2

Time: 04:10 (09:10 UTC)


TAF: missing

Weather observations and forecasts of more than 4000 airports (METAR and TAF reports).

The available stations are represented by yellow and red dots on the map.

Hover mouse over dot to see the name of the station.

Then click to see weather observations and forecasts.

To change the map : click on the green buttons with a black cross to zoom in, on the green button with a dash to zoom out, or on the green arrows for adjacent maps.


METAR-TAF: